Location: Derby
(52.9213°N, 1.4761°W)
Time: 18:03:48
(UTC+01:00)

Tiros 1 - Pass Details

Date: 28 May 2025
Orbit: 620 x 651 km, 48.4° (Epoch: 13 June)

Event Time Altitude Azimuth Distance (km) Brightness Sun altitude
Rises 16:26:25 0° 237° (WSW) 2,886 11.3 40.4°
Reaches altitude 10° 16:28:50 10° 229° (SW) 1,982 10.7 40.0°
Maximum altitude 16:33:01 37° 162° (SSE) 976 8.5 39.4°
Drops below altitude 10° 16:37:13 10° 96° (E) 1,994 9.3 38.8°
Sets 16:39:40 0° 88° (E) 2,906 10.0 38.5°
